Grafton, IL

3:19 AM CST on February 28, 2017 (GMT -0600)
Saint Charles County Smartt

Weather History for KSET - January, 2013

Change the Weather History Date:

Thursday, January 17, 2013

  Actual Average (KSTL) Record (KSTL)
Temperature  
Mean Temperature 33 °F -  
Max Temperature 42 °F 37 °F 72 °F (1894)
Min Temperature 24 °F 20 °F -14 °F (1930)
Degree Days  
Heating Degree Days 32    
Moisture  
Dew Point 24 °F    
Average Humidity 71    
Maximum Humidity 88    
Minimum Humidity 41    
Precipitation  
Precipitation 0.00 in - - ()
Sea Level Pressure  
Sea Level Pressure 30.36 in    
Wind  
Wind Speed 7 mph (NNW)    
Max Wind Speed 17 mph    
Max Gust Speed 25 mph    
Visibility 10 miles    
Events      
Averages and records for this station are not official NWS values.
T = Trace of Precipitation, MM = Missing Value Source: NWS Daily Summary

Daily Weather History Graph

Daily Weather History Graph

Search for Another Location

Airport or City:

Trip Planner

Search our weather history database for the weather conditions in past years. The results will help you decide how hot, cold, wet, or windy it might be!

Date:

Astronomy

Jan. 17, 2013 Rise Set
Actual Time 7:17 AM CST 5:06 PM CST
Civil Twilight 6:48 AM CST 5:35 PM CST
Nautical Twilight 6:16 AM CST 6:08 PM CST
Astronomical Twilight 5:44 AM CST 6:39 PM CST
Moon 10:28 AM CST (1/17) 11:53 PM CST (1/17)
Length of Visible Light 10h 46m
Length of Day
9h 48m
Waxing Crescent, 38% of the Moon is Illuminated
Jan 17
Waxing Crescent
Jan 18
First Quarter
Jan 26
Full
Feb 3
Last Quarter
Feb 10
New

Hourly Weather History & Observations

Time (CST) Temp. Windchill Dew Point Humidity Pressure Visibility Wind Dir Wind Speed Gust Speed Precip Events Conditions
12:54 AM 32.0 °F 26.4 °F 26.1 °F 79% 30.15 in 10.0 mi SW 5.8 mph - N/A   Overcast
2:54 AM 28.9 °F 23.9 °F 23.0 °F 78% 30.19 in 10.0 mi WSW 4.6 mph - N/A   Clear
3:54 AM 26.1 °F - 23.0 °F 88% 30.20 in 10.0 mi Calm Calm - N/A   Clear
4:54 AM 27.0 °F 21.6 °F 23.0 °F 85% 30.22 in 10.0 mi West 4.6 mph - N/A   Clear
5:54 AM 33.1 °F 26.1 °F 27.0 °F 78% 30.24 in 10.0 mi NNW 8.1 mph - N/A   Clear
6:54 AM 33.1 °F 22.2 °F 28.0 °F 82% 30.26 in 10.0 mi North 17.3 mph 25.3 mph N/A   Clear
7:54 AM 32.0 °F 24.2 °F 28.0 °F 85% 30.31 in 9.0 mi North 9.2 mph - N/A   Clear
8:32 AM 33.8 °F 25.8 °F 28.4 °F 81% 30.33 in 9.0 mi North 10.4 mph - N/A   Mostly Cloudy
8:54 AM 34.0 °F 24.6 °F 28.0 °F 79% 30.35 in 9.0 mi NNE 13.8 mph 18.4 mph N/A   Overcast
9:54 AM 34.0 °F 26.0 °F 28.0 °F 79% 30.38 in 10.0 mi North 10.4 mph - N/A   Mostly Cloudy
10:54 AM 37.0 °F 28.9 °F 28.0 °F 70% 30.39 in 10.0 mi NNE 12.7 mph - N/A   Mostly Cloudy
11:01 AM 37.4 °F 29.3 °F 26.6 °F 65% 30.38 in 10.0 mi North 12.7 mph - N/A   Scattered Clouds
11:54 AM 39.0 °F 31.0 °F 25.0 °F 57% 30.38 in 10.0 mi North 13.8 mph 18.4 mph N/A   Clear
12:54 PM 39.9 °F 32.5 °F 21.0 °F 47% 30.36 in 10.0 mi North 12.7 mph - N/A   Clear
1:54 PM 42.1 °F 35.2 °F 19.9 °F 41% 30.36 in 10.0 mi North 12.7 mph - N/A   Clear
2:54 PM 39.0 °F 31.8 °F 21.9 °F 50% 30.38 in 10.0 mi NW 11.5 mph - N/A   Clear
3:54 PM 39.0 °F 31.4 °F 18.0 °F 43% 30.40 in 10.0 mi NNW 12.7 mph - N/A   Clear
4:54 PM 36.0 °F 29.6 °F 18.0 °F 48% 30.43 in 10.0 mi North 8.1 mph - N/A   Clear
5:54 PM 33.1 °F 28.7 °F 19.0 °F 56% 30.45 in 10.0 mi NW 4.6 mph - N/A   Clear
6:54 PM 30.9 °F 26.2 °F 24.1 °F 76% 30.47 in 10.0 mi WNW 4.6 mph - N/A   Clear
7:54 PM 28.0 °F - 23.0 °F 81% 30.48 in 10.0 mi Calm Calm - N/A   Clear
8:54 PM 28.0 °F - 21.0 °F 75% 30.49 in 10.0 mi Calm Calm - N/A   Clear
9:54 PM 24.1 °F - 19.9 °F 84% 30.50 in 10.0 mi Calm Calm - N/A   Clear
10:54 PM 25.0 °F - 21.9 °F 88% 30.50 in 10.0 mi Calm Calm - N/A   Clear
11:54 PM 24.1 °F - 19.9 °F 84% 30.50 in 10.0 mi Calm Calm - N/A   Clear